Location: Perryvale
(54.4667°N, 113.3833°W)
Time: 00:36:24
(UTC+00:00)

Vanguard 1 - Pass Details

Date: 23 May 2024
Orbit: 652 x 3825 km, 34.2° (Epoch: 13 June)

Event Time Altitude Azimuth Distance (km) Brightness Sun altitude
Rises 03:42:28 0° 215° (SW) 4,493 13.4 -0.5°
Reaches altitude 10° 03:45:42 10° 202° (SSW) 3,906 13.0 -0.9°
Maximum altitude 03:54:01 26° 151° (SSE) 3,737 12.5 -1.8°
Drops below altitude 10° 04:06:30 10° 105° (ESE) 6,025 13.5 -3.2°
Sets 04:13:12 0° 96° (E) 7,493 14.1 -3.9°
